Torna al catalogo

CZ-4B DEB

AttivoSSO
NORAD 34223·DEBRIS·🇨🇳 China

Lanciato May 15, 2002 da Taiyuan Satellite Launch Center

Loading…

Prossimi Passaggi (prossime 24 ore)

TLE

In scadenzaSource: Space-Track

Epoca: Sep 10, 2026, 23:54 UTC

1 34223U 02024H   26253.99587082  .00000609  00000-0  37455-3 0  9990
2 34223  99.0498 305.2700 0129486 118.7380 242.6869 14.05250665223390

Traccia CZ-4B DEB in tempo reale con AllMySat

Download on the App Store